Weather in Mang'it

Uzbekistan     42˚06′47″N   60˚03′57″E
temp.,
°C
wind,
m/s
gust,
m/s
humid.,
%
clouds,
%
prec.,
mm/h
press.,
hPa
HPBL,
m
29 november, sun
sun2923:00−1˚e45810 0.0 104281
02:00−2˚e47840 0.0 1041116
05:00−2˚ene49850 0.0 1041149
08:00−3˚ene49850 0.0 1041177
11:00+4˚e811500 0.0 1042735
14:00+7˚e8113625 0.0 1039880
17:00+4˚ene8124058 0.0 1039642
20:00+1˚ene7145672 0.0 1038449
30 november, mon
mon3023:00−1˚ene6146136 0.0 1039403
02:00−2˚ene6155336 0.0 1037383
05:00−2˚ene6145068 0.0 1036395
08:00−3˚ene71450100 0.0 1035411
11:00+2˚ene91336100 0.0 1034613
14:00+4˚ene81130100 0.0 1032657
17:00+3˚ene71237100 0.1 1031593
20:00+1˚ne71344100 0.1 1031448
1 december, tue
tue123:00−2˚ne51051100 0.2 1031250
02:00−1˚ne51152100 0.1 1030390
05:00−2˚ne51058100 0.1 1029334
08:00−4˚ne346593 0.0 102982
11:00+1˚ene674453 0.0 1030527
14:00+5˚ene44310 0.0 1028748
17:00+2˚ne57405 0.0 1028264
20:00−3˚ne476067 0.0 1028134
2 december, wed
wed223:00−5˚ne346546 0.0 102847
02:00−3˚nne235967 0.0 102838
05:00−5˚n346950 0.0 102835
08:00−6˚nne34760 0.0 102937
11:00nne22470 0.0 1030285
14:00+4˚nnw333430 0.0 1028560
17:00+2˚n353915 0.0 102895
20:00−3˚nne345667 0.0 102834
3 december, thu
thu323:00−4˚nne346483 0.0 102862
02:00−5˚nne3473100 0.0 102839
05:00−5˚n3372100 0.0 102870
08:00−6˚n3480100 0.0 102870
11:00nne5761100 0.0 1029444
14:00+3˚nne5651100 0.0 1028628
17:00+2˚n3659100 0.0 1028290
20:00−3˚ne3484100 0.0 102950